Regional Weather Roundup
Issued by NWS

Home | Current Version | Previous Version | Graphics & Text | Print | Product List | Glossary On
Versions: 1 2 3 4 5 6 7 8 9 10 11 12 13 14 15 16 17 18 19 20 21 22 23 24 25 26 27 28 29 30 31 32 33 34 35 36 37 38 39 40 41 42 43 44 45 46 47 48 49 50
000
ASUS43 KOAX 251910
RWRNE

WEATHER ROUNDUP FOR NEBRASKA
NATIONAL WEATHER SERVICE OMAHA NE
200 PM CDT THU AUG 25 2016

NOTES: SATELLITE DATA IS BEING USED TO AUGMENT CLOUD COVER ABOVE
       12000 FEET.
       "FAIR" INDICATES FEW OR NO CLOUDS BELOW 12,000 FEET WITH NO
       SIGNIFICANT WEATHER AND/OR OBSTRUCTIONS TO VISIBILITY.

  * THESE STATIONS DO NOT REPORT WEATHER SUCH AS RAIN...SNOW OR FOG.

NEZ001>004-019>022-054>056-252000-
NEBRASKA PANHANDLE

CITY           SKY/WX    TMP DP  RH WIND       PRES   REMARKS
SCOTTSBLUFF    MOSUNNY   67  45  45 SE9       30.28F
ALLIANCE       SUNNY     64  44  48 N7        30.27F
CHADRON        CLOUDY    63  48  58 VRB5      30.28F
KIMBALL        PTSUNNY   66  47  50 E7G17     30.29F
SIDNEY         SUNNY     71  43  36 E13       30.27F
$$

NEZ057>060-069>072-079>082-252000-
SOUTHWEST NEBRASKA

CITY           SKY/WX    TMP DP  RH WIND       PRES   REMARKS
NORTH PLATTE   SUNNY     76  48  37 CALM      30.22F
IMPERIAL       SUNNY     74  43  32 CALM      30.22F
LEXINGTON      SUNNY     74  50  42 E5        30.20F
MCCOOK         SUNNY     75  50  41 E8        30.20F
OGALLALA       MOSUNNY   74  40  29 SE6       30.23F
$$

NEZ005>010-023>029-035>040-094-252000-
NORTH CENTRAL NEBRASKA

CITY           SKY/WX    TMP DP  RH WIND       PRES   REMARKS
VALENTINE      SUNNY     71  44  37 NW12G17   30.24F
AINSWORTH      SUNNY     69  51  52 N8G16     30.24F
BROKEN BOW     SUNNY     73  51  46 N6        30.21F
O`NEILL        SUNNY     73  48  40 NW10      30.21F
ORD            SUNNY     74  49  41 VRB3      30.19F
THEDFORD       SUNNY     72  48  42 N6        30.25F
$$

NEZ041-046>049-061>064-073>077-083>087-252000-
SOUTH CENTRAL NEBRASKA

CITY           SKY/WX    TMP DP  RH WIND       PRES   REMARKS
GRAND ISLAND   SUNNY     76  54  46 N7        30.18F
AURORA         MOSUNNY   73  55  53 NE5       30.17F
HASTINGS       MOSUNNY   74  56  53 NE5       30.18F
HEBRON         CLOUDY    72  60  65 NE6       30.16R
HOLDREGE       SUNNY     73  54  51 CALM      30.19F
KEARNEY *      SUNNY     73  54  49 E8        30.17F
YORK           PTSUNNY   73  57  56 NE8       30.17S
$$

NEZ011>018-030>034-042>045-252000-
NORTHEAST NEBRASKA

CITY           SKY/WX    TMP DP  RH WIND       PRES   REMARKS
NORFOLK        MOSUNNY   73  53  49 VRB7      30.18F
ALBION         MOSUNNY   71  54  54 N6        30.19F
BLAIR          CLOUDY    73  60  62 N7        30.15S
FREMONT        PTSUNNY   73  60  63 NW5       30.16S
TEKAMAH        CLOUDY    74  60  61 N10       30.15S
WAYNE          MOSUNNY   69  57  64 NW6       30.18F
$$

NEZ050>053-065>068-078-088>093-252000-
SOUTHEAST NEBRASKA

CITY           SKY/WX    TMP DP  RH WIND       PRES   REMARKS
LINCOLN        CLOUDY    75  59  57 N8        30.15F
OMAHA EPPLEY   CLOUDY    73  63  70 N8        30.14S
BEATRICE       CLOUDY    72  60  65 NE5       30.14F
FALLS CITY     SUNNY     75  63  66 E8        30.10F
NEBRASKA CITY  CLOUDY    69  62  77 NW3       30.14F
PLATTSMOUTH    CLOUDY    70  60  70 CALM      30.15R
$$

NEZ044-045-051>053-067-252000-
OMAHA AREA

CITY           SKY/WX    TMP DP  RH WIND       PRES   REMARKS
OMAHA EPPLEY   CLOUDY    73  63  70 N8        30.14S
BLAIR          CLOUDY    73  60  62 N7        30.15S
FREMONT        PTSUNNY   73  60  63 NW5       30.16S
MILLARD        PTSUNNY   73  61  65 N5        30.14S
OFFUTT AFB     CLOUDY    74  62  66 VRB3      30.13S
PLATTSMOUTH    CLOUDY    70  60  70 CALM      30.15R
WAHOO          FAIR      74  60  61 N8        30.15F
$$



USA.gov is the U.S. government's official web portal to all federal, state and local government web resources and services.